Flag for Thailand Weather past 2 weeks in Hat Yai, Thailand

Now
82 °F

Partly sunny.


Feels Like: 86 °F
Forecast: 71 / 87 °F
Wind: 12 mph from East

Location: Hat Yai Airport

Current Time: Jan 27, 2015 at 6:32:32 PM

Latest Report: Jan 27, 2015 at 6:00 PM


Visibility: N/A

Pressure: 29.83 "Hg

Humidity: 66%

Dew point: 70 °F

Location of Hat YaiLocation

Historic Weather in Hat Yai — Graph

°F

Hat Yai temperature yesterday

Maximum temperature yesterday: 88 °F (at 12:30 PM)
Minimum temperature yesterday: 75 °F (at 12:00 AM)
Average temperature yesterday: 80 °F

Past Weeks' High & Low Weather Summary

 TemperatureHumidityPressure
High88 °F (Jan 13, 1:00 PM)100% (Jan 14, 5:00 AM)30.04 "Hg (Jan 14, 5:00 AM)
Low68 °F (Jan 17, 6:30 AM)55% (Jan 18, 11:00 AM)29.80 "Hg (Jan 12, 5:00 PM)
Average79 °F81%29.92 "Hg
* Reported Jan 12 5:00 PM — Jan 27 5:30 PM, Hat Yai, Weather by CustomWeather, © 2014

Note: Actual official high and low records may vary slightly from our data, if they occured in-between our weather recording intervals... More about our weather records

Advertising

Hat Yai weather history for previous 24 hours

 ConditionsComfort  
Time TempWeatherWind HumidityBarometerVisibility
5:30 PM
Jan 27
82 °FPartly sunny.7 mph70%29.83 "HgN/A
4:30 PM86 °FPartly sunny.8 mph66%29.83 "HgN/A
4:00 PM84 °FBroken clouds.10 mph70%29.83 "HgN/A
3:30 PM86 °FBroken clouds.9 mph70%29.83 "HgN/A
3:00 PM86 °FBroken clouds.10 mph75%29.83 "HgN/A
2:30 PM86 °FBroken clouds.10 mph75%29.83 "HgN/A
2:00 PM86 °FBroken clouds.N/A75%29.86 "HgN/A
1:30 PM86 °FBroken clouds.8 mph75%29.86 "HgN/A
12:30 PM86 °FBroken clouds.14 mph79%29.89 "HgN/A
12:00 PM86 °FBroken clouds.12 mph59%29.92 "HgN/A
11:30 AM84 °FBroken clouds.12 mph62%29.92 "Hg6 mi
11:00 AM82 °FBroken clouds.7 mph70%29.95 "Hg6 mi
10:30 AM82 °FBroken clouds.9 mph70%29.95 "Hg6 mi
10:00 AM81 °FPartly sunny.5 mph74%29.95 "Hg6 mi
9:30 AM79 °FPartly sunny.No wind79%29.95 "Hg5 mi
9:00 AM79 °FScattered clouds.2 mph79%29.95 "Hg4 mi
8:30 AM75 °FScattered clouds.No wind89%29.95 "Hg4 mi
8:00 AM73 °FScattered clouds.2 mph89%29.92 "Hg4 mi
7:30 AM70 °FScattered clouds.No wind94%29.92 "Hg4 mi
7:00 AM68 °FScattered clouds.No wind100%29.89 "Hg4 mi
6:30 AM68 °FPassing clouds.No wind94%29.89 "Hg4 mi
6:00 AM70 °FPassing clouds.2 mph94%29.89 "Hg4 mi
5:30 AM70 °FPassing clouds.2 mph94%29.89 "Hg4 mi
5:00 AM70 °FPassing clouds.2 mph94%29.86 "Hg4 mi
4:30 AM70 °FPassing clouds.3 mph94%29.86 "Hg4 mi
4:00 AM70 °FPassing clouds.No wind94%29.86 "Hg4 mi
3:30 AM70 °FPassing clouds.No wind94%29.86 "Hg4 mi
3:00 AM72 °FPassing clouds.No wind88%29.89 "Hg4 mi
2:30 AM72 °FPassing clouds.No wind88%29.89 "Hg4 mi
2:00 AM72 °FPassing clouds.No wind94%29.89 "Hg4 mi
1:30 AM72 °FPassing clouds.No wind94%29.89 "Hg5 mi
1:00 AM72 °FPassing clouds.2 mph94%29.92 "Hg5 mi
12:30 AM73 °FPassing clouds.2 mph83%29.92 "Hg4 mi
12:00 AM73 °FPassing clouds.5 mph89%29.92 "Hg4 mi
11:30 PM
Jan 26
75 °FPassing clouds.6 mph83%29.92 "Hg4 mi
11:00 PM75 °FPassing clouds.6 mph83%29.95 "Hg5 mi
10:30 PM75 °FPassing clouds.5 mph83%29.92 "Hg5 mi
10:00 PM75 °FPassing clouds.3 mph89%29.92 "Hg5 mi
9:30 PM75 °FPassing clouds.5 mph89%29.92 "Hg6 mi
9:00 PM77 °FPassing clouds.5 mph83%29.92 "HgN/A
8:30 PM77 °FPassing clouds.3 mph79%29.92 "HgN/A
8:00 PM79 °FPassing clouds.5 mph79%29.89 "HgN/A
7:30 PM79 °FPassing clouds.5 mph79%29.89 "HgN/A
7:00 PM81 °FPassing clouds.8 mph66%29.89 "HgN/A
6:30 PM81 °FPassing clouds.13 mph66%29.89 "HgN/A
6:00 PM82 °FPartly sunny.13 mph62%29.86 "HgN/A
Weather by CustomWeather, © 2014

See weather overviewHow to use our weather pages